Terminal Aerodrome Forecast
Issued by NWS

Home | Current Version | Previous Version | Text Only | Print | Product List | Glossary On
Versions: 1 2 3 4 5 6 7 8 9 10 11 12 13 14
703
FTAK31 PAJN 050522
TAFAJN
TAF
PAJN 050522Z 0506/0606 11010KT 6SM -RA SCT025 OVC035
     FM050900 10012G22KT 6SM -RA BR BKN025 OVC035
     FM052300 11015G26KT 6SM -RA BR BKN020 OVC035=

USA.gov is the U.S. government's official web portal to all federal, state and local government web resources and services.